Location: *
(51.2167°N, 10.0667°E)
Time: 08:44:13
(UTC+00:00)

Cosmos 1812 - Pass Details

Date: 12 December 2019
Orbit: 516 x 523 km, 82.5° (Epoch: 19 January)

Event Time Altitude Azimuth Distance (km) Brightness Sun altitude
Rises 17:08:05 0° 211° (SSW) 2,645 7.0 -17.0°
Reaches altitude 10° 17:10:21 10° 220° (SW) 1,762 6.2 -17.3°
Maximum altitude 17:13:55 35° 288° (WNW) 868 4.3 -17.9°
Drops below altitude 10° 17:17:31 10° 355° (N) 1,775 5.3 -18.4°
Enters shadow 17:18:43 - 1° (N) 2,239 5.8 -18.6°
